Regional Weather Roundup
Issued by NWS Charleston, WV

Home | Current Version | Previous Version | Graphics & Text | Print | Product List | Glossary On
Versions: 1 2 3 4 5 6 7 8 9 10 11 12 13 14 15 16 17 18 19 20 21 22 23 24 25 26 27 28 29
000
ASUS41 KRLX 191910
RWRRLX
West Virginia Regional Weather Roundup
National Weather Service Charleston WV
200 PM EST FRI JAN 19 2018

Note: "fair" indicates few or no clouds below 12,000 feet with no
significant weather and/or obstructions to visibility.

WVZ003-192000-
Northern Panhandle of West Virginia

CITY           SKY/WX    TMP DP  RH WIND       PRES   REMARKS
WHEELING         N/A     35  15  44 SW13G21   30.04F
$$

WVZ009-192000-
Northwest West Virginia

CITY           SKY/WX    TMP DP  RH WIND       PRES   REMARKS
PARKERSBURG      N/A     38  14  37 S9        30.14F
$$

WVZ006-192000-
Western West Virginia

CITY           SKY/WX    TMP DP  RH WIND       PRES   REMARKS
HUNTINGTON       N/A     38  14  37 S9G21     30.15F
$$

WVZ015-192000-
West Central West Virginia

CITY           SKY/WX    TMP DP  RH WIND       PRES   REMARKS
CHARLESTON       N/A     42  15  33 S7        30.14F
$$

WVZ022-031-192000-
North Central West Virginia

CITY           SKY/WX    TMP DP  RH WIND       PRES   REMARKS
CLARKSBURG       N/A     38  16  40 SW13      30.10F
MORGANTOWN       N/A     37  14  38 S8G18     30.09F
$$

WVZ025-035-042-045-192000-
Southern West Virginia

CITY           SKY/WX    TMP DP  RH WIND       PRES   REMARKS
BECKLEY          N/A     37   5  26 W12       30.10F
LOGAN            N/A     41  10  28 CALM      30.13F
BLUEFIELD        N/A     40  -2  17 W16G24    30.12F
LEWISBURG        N/A     41   6  24 SW8       30.11F
$$

WVZ047-192000-
Northern Mountains of West Virginia

CITY           SKY/WX    TMP DP  RH WIND       PRES   REMARKS
ELKINS           N/A     43  20  39 SW8       30.07F
$$

WVZ052-192000-
Eastern Panhandle of West Virginia

CITY           SKY/WX    TMP DP  RH WIND       PRES   REMARKS
MARTINSBURG      N/A     50  14  23 SW15      30.02F
PETERSBURG       N/A     51  16  25 W15       30.02F
$$




USA.gov is the U.S. government's official web portal to all federal, state and local government web resources and services.